OBJECT AR, 68455

Orbit data source: Space-Track

You're viewing an Uncataloged Satellite

Recently launched and/or uncataloged satellites may have evolving metadata. Metadata may include but not limited to: Owner, Maufacturer, Bus, Motor, and Mission.

OBJECT AR, 68455 is a satellite in SSO that was launched on Mon, 30 Mar 2026 UTC via an FALCON 9 launch vehicle from the Air Force Western Test Range (AFWTR). Unknown objects in Earth's orbit typically refer to objects detected orbiting the Earth but have not yet been identified or cataloged. These objects could be anything from previously untracked satellites, spent rocket stages, debris from satellite collisions, or even natural meteoroids temporarily captured by Earth's gravity.

Loading next visibility...
Identifier
68455, 2026-067AR
Orbit
SSO
Country
Flag of TBDTBD
Related business
None
Manufacturer
Unknown
Mission
Operational spacecraft
Bus & Motor
Unknown
Mass
Unknown
Launch date (UTC)
2026-03-30 (2 months ago)
Launch vehicle
FALCON 9
Launch site
Air Force Western Test Range (AFWTR)
Object type
Unknown
Shape & HBR
Unknown shape, 1.1 m
Radar Cross Section
Medium (>0.1 m² and <1 m²)

Expand to show TLE details & history
Last TLE update: 4 days ago

TLE from 4 days ago
0 OBJECT AR
1 68455U 26067AR  26153.81519354  .00005095  00000-0  25923-3 0  9995
2 68455  97.4578 112.4188 0007554 108.2237 251.9819 15.17245244  9750
Epoch: 2026-06-02T19:33Z
TLE epoch observation values (Epoch: 2026-06-02T19:33:52.721Z)
Latitude
-0.00007°
Longitude
-72.33361°
Altitude
518.87 km
Speed
7.603 km/s
True Right ascension
07h 29m 40s
True Declination
0° 00' 00"
Sunlit
Object was in daylight at epoch
Visualization orbit readout
Latitude
Unknown
Longitude
Unknown
Altitude
Unknown
Speed
Unknown
Apparent Right ascension
Unknown
Apparent Declination
Unknown
Sunlit
N/A
Visualization observer readout
Local Sidereal Time
03:16:05
Azimuth
Unknown
Elevation
Unknown
Doppler factor
Unknown
Orbital elements
Apogee altitude
516.346 km
Perigee altitude
505.938 km
Semi-major axis
6,889.279 km
Eccentricity
0.00076
Inclination
97.4578°
RAAN
112.4188°
Arg. of periapsis
108.2237°
True anomaly
251.89961°
Mean anomaly
251.9819°
Eccentric anomaly
251.94075°
Mean motion
3.79562 °/min
Orbital period
94.85 mins
BSTAR
0.00025923
Loading maneuver chart data...
Computing Atmospheric mass density...
Loading historical data...
Loading historical data...
Loading historical data...
Loading historical data...
Loading historical data...
Loading historical data...
Loading historical data...

Documentation

Showing up to 5 results
|